Weather History for Weaverville, CA

Change the Weather History Date:

Wednesday, October 16, 2013

  Actual Average (KRDD) Record (KRDD)
Temperature  
Mean Temperature 52 °F -  
Max Temperature 73 °F 78 °F 98 °F (1988)
Min Temperature 30 °F 49 °F 39 °F (2013)
Degree Days  
Heating Degree Days 14    
Cooling Degree Days 0    
Growing Degree Days 2 (Base 50)    
Moisture  
Dew Point 28 °F    
Average Humidity 54    
Maximum Humidity 87    
Minimum Humidity 16    
Precipitation  
Precipitation 0.00 in 0.07 in 0.43 in (2007)
Month to date precipitation 0.73  
Year to date precipitation 22.50  
Since 1 July precipitation 1.64  
Sea Level Pressure  
Sea Level Pressure 30.13 in    
Wind  
Wind Speed 2 mph (SW)    
Max Wind Speed 9 mph    
Max Gust Speed -    
Visibility 10 miles    
Events      
T = Trace of Precipitation, MM = Missing Value Source: NWS Daily Summary

Daily Weather History Graph

Daily Weather History Graph

Search for Another Location

Airport:

Trip Planner

Search our weather history database for the weather conditions in past years. The results will help you decide how hot, cold, wet, or windy it might be!

Date:

Astronomy

Oct. 16, 2013 Rise Set
Actual Time 7:24 AM PDT 6:29 PM PDT
Civil Twilight 6:56 AM PDT 6:56 PM PDT
Nautical Twilight 6:24 AM PDT 7:28 PM PDT
Astronomical Twilight 5:53 AM PDT 8:00 PM PDT
Moon 5:12 PM PDT (10/16) 4:57 AM PDT (10/16)
Length of Visible Light 12h 00m
Length of Day
11h 04m
Waxing Gibbous, 94% of the Moon is Illuminated
Oct 16
Waxing Gibbous
Oct 18
Full
Oct 26
Last Quarter
Nov 3
New
Nov 9
First Quarter

Hourly Weather History & Observations

Time (PDT) Temp. Windchill Dew Point Humidity Pressure Visibility Wind Dir Wind Speed Gust Speed Precip Events Conditions
12:15 AM 39.2 °F 35.9 °F 28.4 °F 65% 30.11 in 10.0 mi NNE 4.6 mph - N/A   Clear
12:35 AM 37.4 °F - 28.4 °F 70% 30.11 in 10.0 mi Calm Calm - N/A   Clear
12:55 AM 37.4 °F - 28.4 °F 70% 30.12 in 10.0 mi Calm Calm - N/A   Clear
1:15 AM 37.4 °F - 28.4 °F 70% 30.11 in 10.0 mi Calm Calm - N/A   Clear
1:35 AM 35.6 °F - 28.4 °F 75% 30.12 in 10.0 mi Calm Calm - N/A   Clear
1:55 AM 35.6 °F - 28.4 °F 75% 30.12 in 10.0 mi Calm Calm - N/A   Clear
2:15 AM 35.6 °F - 28.4 °F 75% 30.12 in 10.0 mi Calm Calm - N/A   Clear
2:35 AM 35.6 °F 32.8 °F 28.4 °F 75% 30.12 in 10.0 mi NNE 3.5 mph - N/A   Clear
2:55 AM 33.8 °F - 26.6 °F 75% 30.12 in 10.0 mi Calm Calm - N/A   Clear
3:15 AM 32.0 °F - 28.4 °F 87% 30.12 in 10.0 mi Calm Calm - N/A   Clear
3:35 AM 32.0 °F - 26.6 °F 80% 30.12 in 10.0 mi Calm Calm - N/A   Clear
3:55 AM 32.0 °F - 26.6 °F 80% 30.11 in 10.0 mi Calm Calm - N/A   Clear
4:15 AM 32.0 °F - 26.6 °F 80% 30.12 in 10.0 mi Calm Calm - N/A   Clear
4:35 AM 32.0 °F - 26.6 °F 80% 30.12 in 10.0 mi Calm Calm - N/A   Clear
4:55 AM 32.0 °F - 26.6 °F 80% 30.12 in 10.0 mi Calm Calm - N/A   Clear
5:15 AM 32.0 °F - 26.6 °F 80% 30.12 in 10.0 mi Calm Calm - N/A   Clear
5:35 AM 32.0 °F - 26.6 °F 80% 30.13 in 10.0 mi Calm Calm - N/A   Clear
5:55 AM 32.0 °F - 26.6 °F 80% 30.13 in 10.0 mi Calm Calm - N/A   Clear
6:15 AM 32.0 °F - 26.6 °F 80% 30.14 in 10.0 mi Calm Calm - N/A   Clear
6:35 AM 32.0 °F - 26.6 °F 80% 30.14 in 10.0 mi Calm Calm - N/A   Clear
6:55 AM 30.2 °F - 26.6 °F 86% 30.15 in 10.0 mi Calm Calm - N/A   Clear
7:15 AM 30.2 °F - 26.6 °F 86% 30.15 in 10.0 mi Calm Calm - N/A   Clear
7:35 AM 32.0 °F - 26.6 °F 80% 30.16 in 10.0 mi Calm Calm - N/A   Clear
7:55 AM 32.0 °F - 26.6 °F 80% 30.17 in 10.0 mi Calm Calm - N/A   Clear
8:15 AM 32.0 °F - 26.6 °F 80% 30.18 in 10.0 mi Calm Calm - N/A   Clear
8:35 AM 33.8 °F - 28.4 °F 81% 30.19 in 9.0 mi Calm Calm - N/A   Clear
8:55 AM 35.6 °F - 26.6 °F 70% 30.19 in 10.0 mi Calm Calm - N/A   Clear
9:15 AM 39.2 °F - 28.4 °F 65% 30.19 in 10.0 mi Calm Calm - N/A   Clear
9:35 AM 41.0 °F - 28.4 °F 61% 30.19 in 10.0 mi Calm Calm - N/A   Clear
9:55 AM 42.8 °F - 28.4 °F 57% 30.18 in 10.0 mi Calm Calm - N/A   Clear
10:15 AM 46.4 °F - 28.4 °F 50% 30.19 in 10.0 mi Calm Calm - N/A   Clear
10:35 AM 48.2 °F - 26.6 °F 43% 30.18 in 10.0 mi South 3.5 mph - N/A   Clear
10:55 AM 50.0 °F - 28.4 °F 43% 30.18 in 10.0 mi Calm Calm - N/A   Clear
11:15 AM 53.6 °F - 28.4 °F 38% 30.18 in 10.0 mi SSW 4.6 mph - N/A   Clear
11:35 AM 55.4 °F - 28.4 °F 36% 30.17 in 10.0 mi SW 3.5 mph - N/A   Clear
11:55 AM 57.2 °F - 28.4 °F 33% 30.17 in 10.0 mi SSW 3.5 mph - N/A   Clear
12:15 PM 59.0 °F - 30.2 °F 34% 30.16 in 10.0 mi SSW 3.5 mph - N/A   Clear
12:35 PM 60.8 °F - 28.4 °F 29% 30.15 in 10.0 mi Calm Calm - N/A   Clear
12:55 PM 62.6 °F - 28.4 °F 27% 30.15 in 10.0 mi Calm Calm - N/A   Clear
1:15 PM 64.4 °F - 30.2 °F 28% 30.14 in 10.0 mi Calm Calm - N/A   Clear
1:35 PM 66.2 °F - 26.6 °F 23% 30.13 in 10.0 mi SW 3.5 mph - N/A   Clear
1:55 PM 68.0 °F - 26.6 °F 21% 30.12 in 10.0 mi SSW 4.6 mph - N/A   Clear
2:15 PM 68.0 °F - 26.6 °F 21% 30.12 in 10.0 mi SW 4.6 mph - N/A   Clear
2:35 PM 69.8 °F - 24.8 °F 18% 30.11 in 10.0 mi Calm Calm - N/A   Clear
2:55 PM 73.4 °F - 26.6 °F 18% 30.10 in 10.0 mi South 5.8 mph - N/A   Clear
3:15 PM 73.4 °F - 26.6 °F 18% 30.10 in 10.0 mi SSW 8.1 mph - N/A   Clear
3:35 PM 73.4 °F - 26.6 °F 18% 30.10 in 10.0 mi SSW 6.9 mph - N/A   Clear
3:55 PM 73.4 °F - 26.6 °F 18% 30.09 in 10.0 mi SW 5.8 mph - N/A   Clear
4:15 PM 73.4 °F - 24.8 °F 16% 30.09 in 10.0 mi WSW 9.2 mph - N/A   Clear
4:35 PM 73.4 °F - 26.6 °F 18% 30.09 in 10.0 mi West 6.9 mph - N/A   Clear
4:55 PM 73.4 °F - 26.6 °F 18% 30.09 in 10.0 mi WSW 3.5 mph - N/A   Clear
5:15 PM 73.4 °F - 26.6 °F 18% 30.09 in 10.0 mi WSW 5.8 mph - N/A   Clear
5:35 PM 71.6 °F - 24.8 °F 17% 30.08 in 10.0 mi WSW 5.8 mph - N/A   Clear
5:55 PM 71.6 °F - 24.8 °F 17% 30.08 in 10.0 mi Calm Calm - N/A   Clear
6:35 PM 62.6 °F - 32.0 °F 32% 30.08 in 10.0 mi NE 3.5 mph - N/A   Clear
6:55 PM 57.2 °F - 35.6 °F 44% 30.09 in 10.0 mi ENE 3.5 mph - N/A   Clear
7:15 PM 53.6 °F - 33.8 °F 47% 30.09 in 10.0 mi Calm Calm - N/A   Clear
7:35 PM 51.8 °F - 32.0 °F 47% 30.10 in 10.0 mi Calm Calm - N/A   Clear
7:55 PM 50.0 °F - 32.0 °F 50% 30.10 in 10.0 mi Calm Calm - N/A   Clear
8:15 PM 50.0 °F - 32.0 °F 50% 30.11 in 10.0 mi Calm Calm - N/A   Clear
8:35 PM 48.2 °F - 32.0 °F 54% 30.12 in 10.0 mi Calm Calm - N/A   Partly Cloudy
8:55 PM 46.4 °F - 32.0 °F 57% 30.12 in 10.0 mi Calm Calm - N/A   Partly Cloudy
9:15 PM 46.4 °F - 32.0 °F 57% 30.13 in 10.0 mi Calm Calm - N/A   Clear
9:35 PM 46.4 °F - 32.0 °F 57% 30.14 in 10.0 mi Calm Calm - N/A   Clear
9:55 PM 46.4 °F 45.2 °F 32.0 °F 57% 30.14 in 10.0 mi NE 3.5 mph - N/A   Clear
10:15 PM 44.6 °F - 32.0 °F 61% 30.15 in 10.0 mi Calm Calm - N/A   Clear
10:35 PM 44.6 °F - 32.0 °F 61% 30.15 in 10.0 mi Calm Calm - N/A   Clear
10:55 PM 42.8 °F 40.1 °F 32.0 °F 66% 30.16 in 10.0 mi NNE 4.6 mph - N/A   Clear
11:15 PM 41.0 °F 39.0 °F 32.0 °F 70% 30.16 in 10.0 mi NNE 3.5 mph - N/A   Clear
11:35 PM 41.0 °F - 32.0 °F 70% 30.16 in 10.0 mi Calm Calm - N/A   Clear
11:55 PM 39.2 °F - 32.0 °F 75% 30.16 in 10.0 mi Calm Calm - N/A   Clear